This is the latest recevied weather packets stored in our database for station/object K3PPP. If no packets are shown the sender has not sent any weather packets the latest 10 day(s).
| Time | Temp. | Humidity | Pressure | Rain* | Wind** | Luminosity | Snow |
|---|---|---|---|---|---|---|---|
| 1777369720 | 8.33° C | 92% | 1016.4 hPa | 1.27 mm | - | 0 W/m² | - |
| 1777369414 | 8.33° C | 91% | 1016.4 hPa | 1.78 mm | - | 0 W/m² | - |
| 1777369110 | 8.33° C | 90% | 1016.5 hPa | 3.56 mm | - | 0 W/m² | - |
| 1777368808 | 8.89° C | 90% | 1016.5 hPa | 3.05 mm | - | 0 W/m² | - |
| 1777368503 | 8.89° C | 88% | 1016.2 hPa | 1.27 mm | - | 0 W/m² | - |
| 1777368200 | 8.89° C | 87% | 1016.4 hPa | 1.78 mm | - | 0 W/m² | - |
| 1777367897 | 8.89° C | 86% | 1016 hPa | 1.78 mm | - | 0 W/m² | - |
| 1777367593 | 9.44° C | 85% | 1016.1 hPa | 1.27 mm | - | 0 W/m² | - |
| 1777367289 | 9.44° C | 82% | 1016 hPa | 1.27 mm | - | 0 W/m² | - |
| 1777366983 | 10° C | 81% | 1016 hPa | 0 mm | - | 0 W/m² | - |
| 1777366678 | 10° C | 79% | 1016.4 hPa | 0 mm | - | 0 W/m² | - |
| 1777366373 | 10° C | 79% | 1016.4 hPa | 0 mm | - | 0 W/m² | - |
| 1777366070 | 10° C | 78% | 1016.2 hPa | 0 mm | - | 0 W/m² | - |
| 1777365766 | 10° C | 75% | 1016.5 hPa | 0 mm | - | 0 W/m² | - |
| 1777365462 | 10.56° C | 75% | 1016.2 hPa | 0 mm | - | 0 W/m² | - |
| 1777365160 | 10.56° C | 74% | 1016.2 hPa | 0 mm | - | 0 W/m² | - |
| 1777364859 | 10.56° C | 75% | 1016 hPa | 0 mm | - | 0 W/m² | - |
| 1777364554 | 10.56° C | 75% | 1016.1 hPa | 0 mm | - | 0 W/m² | - |
| 1777364252 | 10.56° C | 74% | 1016.2 hPa | 0 mm | - | 0 W/m² | - |
| 1777363948 | 10.56° C | 73% | 1016.5 hPa | 0 mm | - | 0 W/m² | - |
* Rain latest hour (hover to see other rain measurements)
** Current wind speed in m/s (hover to see current wind gust speed)